STARLINK-3046, 49169

Orbit data source: Space-Track

STARLINK-3046, 49169 is a payload satellite owned by SpaceX/Seattle (US) in LEO that was launched on Tue, 14 Sep 2021 UTC via an FALCON 9 launch vehicle from the Air Force Western Test Range (AFWTR). Payload-class satellites include a variety of spacecraft equipped with specific instruments for various scientific and technological missions. These include communications satellites like Starlink; space stations such as the ISS; scientific satellites like the Hubble; Earth observation satellites from companies like Planet Labs, Umbra, and HawkEye 360; GPS; miniature CubeSats for education and research; and military/defense satellites.

Loading next visibility...
Identifier
49169, 2021-082AR
Orbit
LEO
Country
Flag of USUS
Related business
Manufacturer
SpaceX/Seattle
Mission
Operational Commercial Communications
Bus & Motor
STARLINK, Unknown motor
Mass
297 kg wet, ~275 kg dry
Launch date (UTC)
2021-09-14 (4 years ago)
Launch vehicle
FALCON 9
Launch site
Air Force Western Test Range (AFWTR)
Object type
Payload
Rocket body
Debris
Shape & HBR
Box + 1 Pan, 10.1 m
Radar Cross Section
13.562 m², Large (>1 m²)

Expand to show TLE details & history
Last TLE update: 19 hours ago

TLE from 19 hours ago
0 STARLINK-3046
1 49169U 21082AR  26071.63782257  .00133450  00000-0  10706-1 0  9999
2 49169  69.9981 267.0241 0008232 208.1093 151.9623 14.99290721246916
Epoch: 2026-03-12T15:18Z
TLE epoch observation values (Epoch: 2026-03-12T15:18:27.870Z)
Latitude
-0.00002°
Longitude
-132.87687°
Altitude
576.561 km
Speed
7.57 km/s
True Right ascension
17h 48m 05s
True Declination
0° 00' 00"
Sunlit
Object was in daylight at epoch
Visualization orbit readout
Latitude
Unknown
Longitude
Unknown
Altitude
Unknown
Speed
Unknown
Apparent Right ascension
Unknown
Apparent Declination
Unknown
Sunlit
N/A
Visualization observer readout
Local Sidereal Time
15:06:17
Azimuth
Unknown
Elevation
Unknown
Doppler factor
Unknown
Orbital elements
Apogee altitude
572.751 km
Perigee altitude
561.317 km
Semi-major axis
6,945.171 km
Eccentricity
0.00082
Inclination
69.9981°
RAAN
267.0241°
Arg. of periapsis
208.1093°
True anomaly
152.0066°
Mean anomaly
151.9623°
Eccentric anomaly
151.98445°
Mean motion
3.74989 °/min
Orbital period
96 mins
BSTAR
0.010706
Loading maneuver chart data...
Computing Atmospheric mass density...

Documentation

Showing up to 5 results
|